Regional Weather Roundup
Issued by NWS

Current Version | Previous Version | Text Only | Print | Product List | Glossary On
Versions: 1 2 3 4 5 6 7 8 9 10 11 12 13 14 15 16 17 18 19 20 21 22 23 24 25 26 27 28 29 30 31 32 33 34 35 36 37 38 39 40 41 42 43 44 45 46 47 48 49 50
000
ASUS43 KMPX 040801
RWRMN
WEATHER ROUNDUP FOR MINNESOTA
NATIONAL WEATHER SERVICE TWIN CITIES/CHANHASSEN MN
300 AM CDT TUE AUG 04 2015


NOTE: "FAIR" INDICATES FEW OR NO CLOUDS BELOW 12,000 FEET WITH NO
SIGNIFICANT WEATHER AND/OR OBSTRUCTIONS TO VISIBILITY. N/A MEANS
CURRENT SKY AND/OR WEATHER CONDITIONS ARE NOT AVAILABLE.

MNZ060>063-068>070-040900-
   Twin Cities Metro

CITY           SKY/WX    TMP DP  RH WIND       PRES   REMARKS
TWIN CITIES    CLEAR     63  54  72 SW3       29.96R
ST PAUL        CLEAR     63  55  75 CALM      29.96R
CRYSTAL        CLEAR     63  54  72 W3        29.95R
BLAINE         CLEAR     61  55  82 CALM      29.96R
LAKEVILLE      CLEAR     55  52  88 CALM      29.96S
EDEN PRAIRIE   CLEAR     63  54  72 CALM      29.95S
SOUTH ST PAUL  CLEAR     61  54  75 CALM      29.95S
LAKE ELMO      FAIR      55  54  94 CALM      29.97R
$$
MNZ001>005-007-008-013>017-022>024-027-028-040900-
   Northwest Minnesota

CITY           SKY/WX    TMP DP  RH WIND       PRES   REMARKS
BEMIDJI        CLEAR     49  45  85 CALM      29.95S
HALLOCK        MOCLDY    52  48  87 N3        29.96R
ROSEAU         CLEAR     54  48  82 CALM      29.96R
WARROAD        CLEAR     54  52  94 NW5       29.95R
THIEF RVR FALL PTCLDY    57  48  72 CALM      29.95S
CROOKSTON      CLEAR     54  50  87 CALM      29.95S
FOSSTON        PTCLDY    46  46 100 S5        29.96S
DETROIT LAKES  CLEAR     59  52  77 CALM      29.97R
MOORHEAD       CLEAR     54  48  82 SW5       29.96R
PARK RAPIDS    CLEAR     52  48  86 CALM      29.96S
MAHNOMEN       FAIR      53  50  89 CALM      29.96R
$$
MNZ006-009>011-018-025>026-040900-
   North Central Minnesota

CITY           SKY/WX    TMP DP  RH WIND       PRES   REMARKS
BAUDETTE       CLEAR     52  49  89 W5        29.92S
FLAG ISLAND    CLEAR     59  55  88 NW12      29.93R
INTL FALLS     CLEAR     42  42 100 CALM      29.91S
WASKISH        CLEAR     59  54  82 NW3       29.94R
BIG FORK       PTCLDY    46  45  93 CALM      29.94R
LONGVILLE      CLEAR     50  48  93 CALM      29.94S
GRAND RAPIDS   CLEAR     52  46  82 CALM      29.93S
CRANE LAKE     CLEAR     50  50 100 CALM      29.92R
ORR            CLEAR     48  46  93 CALM      29.89S
COOK           CLEAR     46  46 100 CALM      29.92S FOG
WALKER         FAIR      49  47  92 CALM      29.95S
$$
MNZ012-019>021-037-040900-
   Northeast Minnesota

CITY           SKY/WX    TMP DP  RH WIND       PRES   REMARKS
DULUTH         MOCLDY    54  50  86 W8        29.91S
ELY            CLEAR     52  50  93 CALM      29.90S
HIBBING        PTCLDY    47  45  93 W3        29.92S
EVELETH        PTCLDY    54  52  94 W3        29.92S
DULUTH HARBOR  CLEAR     57  54  88 W7        29.91S
TWO HARBORS    PTCLDY    57  54  88 NW3       29.89R
SILVER BAY     CLEAR     57  54  88 W5        29.87R
GRAND MARAIS     N/A     50  48  93 CALM      29.85R
G MARAIS ARPRT LGT RAIN  54  50  87 NW3       29.87S
$$
MNZ029>031-032-039>041-046>048-054>057-064-040900-
   West Central Minnesota

CITY           SKY/WX    TMP DP  RH WIND       PRES   REMARKS
FERGUS FALLS   CLEAR     55  55 100 CALM      29.97R
WHEATON        CLEAR     54  52  94 CALM      29.98S
MORRIS         CLEAR     52  48  87 CALM      29.96S
ALEXANDRIA     CLEAR     55  52  89 SW3       29.98S
ELBOW LAKE     FAIR      55  53  94 S5        29.97S
WADENA         CLEAR     50  46  87 CALM      29.96R
GLENWOOD       CLEAR     55  54  94 SW5       29.98S
APPLETON       CLEAR     54  50  87 CALM      29.96S
BENSON         FOG       50  46  87 CALM      29.97S VSB 1
ORTONVILLE     CLEAR     55  52  88 CALM      29.96F
MADISON        CLEAR     54  52  94 CALM      29.97S
WILLMAR        FAIR      54  50  87 CALM      29.98F
$$
MNZ033>034-036-042>043-049>051-058-059-040900-
   Central Minnesota

CITY           SKY/WX    TMP DP  RH WIND       PRES   REMARKS
ST CLOUD       CLEAR     52  50  93 CALM      29.96R
SAUK CENTRE    FAIR      50  49  95 CALM      29.97S
PAYNESVILLE    CLEAR     47  47  99 SW3       29.97F
AITKIN         CLEAR     50  45  81 CALM      29.93S HAZE
PINE RIVER     CLEAR     48  46  93 CALM      29.98S
BRAINERD       CLEAR     50  48  93 S3        29.95S
STAPLES        CLEAR     52  48  87 CALM      29.96S
LONG PRAIRIE   FAIR      52  50  93 CALM      29.97S
LITCHFIELD     CLEAR     57  54  88 CALM      29.98S
BUFFALO        CLEAR     57  51  81 CALM      29.98R
$$
MNZ037-044-045-052-053-040900-
   East Central Minnesota

CITY           SKY/WX    TMP DP  RH WIND       PRES   REMARKS
PRINCETON      CLEAR     52  48  87 CALM      29.96R
MORA           CLEAR     52  50  93 CALM      29.96S
CAMBRIDGE      CLEAR     55  48  76 CALM      29.94R
RUSH CITY      MOCLDY    51  50  95 W3        29.94S
MOOSE LAKE     CLEAR     50  50 100 S3        29.91S
HINCKLEY       FAIR      50  50 100 CALM      29.93S
CLOQUET        CLEAR     55  50  82 W5        29.92S
MCGREGOR       CLEAR     50  46  87 CALM      29.94S
$$
MNZ071>073-080-081-089-090-097-098-040900-
   Southwest Minnesota

CITY           SKY/WX    TMP DP  RH WIND       PRES   REMARKS
MONTEVIDEO     CLEAR     54  45  71 CALM      29.99S
GRANITE FALLS  CLEAR     51  49  95 CALM      29.99S
CANBY          CLEAR     53  51  90 CALM      29.98F
MARSHALL       CLEAR     55  48  76 CALM      29.98S
REDWOOD FALLS  CLEAR     56  51  84 CALM      29.97S
OLIVIA         CLEAR     52  46  82 CALM      29.96F
PIPESTONE      CLEAR     59  52  77 CALM      29.98F
WINDOM         CLEAR     57  54  88 CALM      29.99S
WORTHINGTON    CLEAR     55  48  76 SW3       30.00S
JACKSON        CLEAR     55  54  94 CALM      29.99F
SLAYTON        CLEAR     55  53  92 CALM      30.00F
$$
MNZ065>067-074>077-082>085-091>093-040900-
   South Central Minnesota

CITY           SKY/WX    TMP DP  RH WIND       PRES   REMARKS
MANKATO        CLEAR     57  48  72 MISG      29.97S
NEW ULM        CLEAR     52  52 100 W3        29.97S
ST JAMES         N/A     54  52  94 NW3       29.98F
FAIRMONT       CLEAR     57  48  72 CALM      29.98R
GLENCOE        CLEAR     54  52  95 CALM      29.96F
FARIBAULT      CLEAR     57  54  88 NW5       29.97S
OWATONNA       CLEAR     52  48  87 CALM      29.97S
WASECA         CLEAR     52  50  93 CALM      29.98S
ALBERT LEA     CLEAR     55  54  94 CALM      29.97S
$$
MNZ078>079-086>088-094>096-040900-
   Southeast Minnesota

CITY           SKY/WX    TMP DP  RH WIND       PRES   REMARKS
ROCHESTER      CLEAR     56  52  86 NW8       29.97S
RED WING       PTCLDY    55  54  94 CALM      29.95R
STANTON        CLEAR     56  52  86 CALM      29.95S
DODGE CENTER   PTCLDY    57  52  82 CALM      29.96F
WINONA         CLEAR     59  55  88 NW6       29.94S
AUSTIN         CLEAR     57  54  88 CALM      29.96S
PRESTON        CLEAR     56  51  82 W7        29.96S
$$
ABBREVIATIONS USED IN REMARKS
   TC - TEMPERATURES IN CELSIUS
  WCI - WIND CHILL INDEX
   HX - HEAT INDEX
  VSB - VISIBILITY
$$



USA.gov is the U.S. government's official web portal to all federal, state and local government web resources and services.